This is the latest recevied weather packets stored in our database for station/object IU5GBO-13. If no packets are shown the sender has not sent any weather packets the latest 10 day(s).
| Time | Temp. | Humidity | Pressure | Rain* | Wind** | Luminosity | Snow |
|---|---|---|---|---|---|---|---|
| 1777741575 | 19.44° C | 42% | 1022.1 hPa | - | - | - | - |
| 1777740976 | 20° C | 40% | 1022.1 hPa | - | - | - | - |
| 1777740376 | 20° C | 37% | 1022.2 hPa | - | - | - | - |
| 1777739776 | 20.56° C | 38% | 1022.2 hPa | - | - | - | - |
| 1777739175 | 20.56° C | 38% | 1022.3 hPa | - | - | - | - |
| 1777738575 | 20.56° C | 36% | 1022.5 hPa | - | - | - | - |
| 1777737975 | 20.56° C | 37% | 1022.4 hPa | - | - | - | - |
| 1777737376 | 21.11° C | 36% | 1022.5 hPa | - | - | - | - |
| 1777736775 | 21.11° C | 36% | 1022.6 hPa | - | - | - | - |
| 1777736175 | 21.11° C | 35% | 1022.7 hPa | - | - | - | - |
| 1777735575 | 21.11° C | 35% | 1022.8 hPa | - | - | - | - |
| 1777734975 | 21.11° C | 35% | 1022.9 hPa | - | - | - | - |
| 1777734375 | 21.67° C | 34% | 1022.9 hPa | - | - | - | - |
| 1777733775 | 21.67° C | 34% | 1022.9 hPa | - | - | - | - |
| 1777733175 | 21.11° C | 36% | 1023 hPa | - | - | - | - |
| 1777732576 | 21.67° C | 34% | 1023.1 hPa | - | - | - | - |
| 1777731975 | 21.67° C | 35% | 1023.1 hPa | - | - | - | - |
| 1777731375 | 21.67° C | 34% | 1023.3 hPa | - | - | - | - |
| 1777730775 | 22.22° C | 30% | 1023.2 hPa | - | - | - | - |
| 1777730175 | 22.22° C | 28% | 1023.4 hPa | - | - | - | - |
| 1777729575 | 22.22° C | 30% | 1023.5 hPa | - | - | - | - |
| 1777728975 | 22.22° C | 30% | 1023.7 hPa | - | - | - | - |
| 1777728375 | 22.22° C | 29% | 1023.8 hPa | - | - | - | - |
| 1777727775 | 21.67° C | 31% | 1023.9 hPa | - | - | - | - |
| 1777727175 | 22.22° C | 31% | 1023.9 hPa | - | - | - | - |
* Rain since midnight (hover to see other rain measurements)
** Current wind speed in m/s (hover to see current wind gust speed)